When you browse on this site, cookies collect data to enhance your experience and personalize the content and advertising you see.
Visit our Privacy Policy to learn more. By continuing to use the site, you agree to this use of cookies and data.
  • In Latvia
  • List of Countries
  • For 7 days
  • Water Temperature
  • Weather Map
  • Weather Widgets
  • user-avatar
    Login

    Hourly Weather Shalahovo

    Today, 24 February, Monday

    Time Temperature Precipitation Wind Pressure Humidity
    00:00 0°C° 0.1 mm 4 mps 729 mmHg 87%
    01:00 -1°C° 0.1 mm 4 mps 729 mmHg 89%
    02:00 -1°C° 0 mm 4 mps 729 mmHg 92%
    03:00 -1°C° 0 mm 4 mps 729 mmHg 91%
    04:00 0°C° 0 mm 3 mps 729 mmHg 91%
    05:00 0°C° 0 mm 3 mps 729 mmHg 90%
    06:00 0°C° 0 mm 3 mps 729 mmHg 91%
    07:00 0°C° 0 mm 3 mps 730 mmHg 92%
    08:00 -1°C° 0 mm 4 mps 731 mmHg 93%
    09:00 0°C° 0.1 mm 4 mps 731 mmHg 84%
    10:00 +1°C° 0.1 mm 4 mps 732 mmHg 76%
    11:00 +2°C° 0.1 mm 5 mps 732 mmHg 67%
    12:00 +2°C° 0.1 mm 5 mps 732 mmHg 64%
    13:00 +2°C° 0.1 mm 6 mps 733 mmHg 61%
    14:00 +2°C° 0.1 mm 6 mps 733 mmHg 57%
    15:00 +1°C° 0 mm 5 mps 734 mmHg 58%
    16:00 0°C° 0 mm 5 mps 735 mmHg 60%
    17:00 0°C° 0 mm 4 mps 735 mmHg 61%
    18:00 -1°C° 0 mm 4 mps 736 mmHg 63%
    19:00 -1°C° 0 mm 4 mps 736 mmHg 66%
    20:00 -2°C° 0 mm 4 mps 737 mmHg 69%
    21:00 -2°C° 0 mm 4 mps 737 mmHg 70%
    22:00 -1°C° 0 mm 3 mps 737 mmHg 72%
    23:00 -2°C° 0 mm 3 mps 738 mmHg 74%

    Tomorrow, 25 February, Tuesday

    Time Temperature Precipitation Wind Pressure Humidity
    00:00 -2°C° 0 mm 3 mps 738 mmHg 75%
    01:00 -2°C° 0 mm 3 mps 738 mmHg 76%
    02:00 -2°C° 0 mm 3 mps 738 mmHg 77%
    03:00 -2°C° 0 mm 2 mps 738 mmHg 79%
    04:00 -2°C° 0 mm 2 mps 738 mmHg 81%
    05:00 -2°C° 0 mm 2 mps 737 mmHg 83%
    06:00 -2°C° 0 mm 2 mps 737 mmHg 82%
    07:00 -2°C° 0 mm 2 mps 737 mmHg 82%
    08:00 -2°C° 0 mm 2 mps 737 mmHg 81%
    09:00 -1°C° 0 mm 2 mps 736 mmHg 75%
    10:00 -1°C° 0 mm 2 mps 736 mmHg 68%
    11:00 0°C° 0 mm 3 mps 736 mmHg 61%
    12:00 +1°C° 0 mm 3 mps 735 mmHg 59%
    13:00 +1°C° 0 mm 3 mps 735 mmHg 56%
    14:00 +2°C° 0 mm 3 mps 735 mmHg 54%
    15:00 +1°C° 0 mm 3 mps 734 mmHg 60%
    16:00 +1°C° 0 mm 3 mps 733 mmHg 66%
    17:00 0°C° 0 mm 3 mps 733 mmHg 71%
    18:00 0°C° 0.1 mm 3 mps 732 mmHg 80%
    19:00 -1°C° 0.1 mm 4 mps 731 mmHg 88%
    20:00 -2°C° 0.1 mm 5 mps 731 mmHg 96%
    21:00 -1°C° 0.4 mm 4 mps 730 mmHg 96%
    22:00 -1°C° 0.4 mm 4 mps 729 mmHg 96%
    23:00 -1°C° 0.4 mm 4 mps 728 mmHg 96%

    Day after tomorrow, 26 February, Wednesday

    Time Temperature Precipitation Wind Pressure Humidity
    00:00 0°C° 0.5 mm 4 mps 728 mmHg 96%
    01:00 +1°C° 0.5 mm 3 mps 727 mmHg 95%
    02:00 +1°C° 0.5 mm 3 mps 727 mmHg 95%
    03:00 0°C° 0 mm 3 mps 727 mmHg 95%
    04:00 -1°C° 0 mm 3 mps 727 mmHg 95%
    05:00 -1°C° 0 mm 2 mps 726 mmHg 94%
    06:00 -1°C° 0 mm 3 mps 727 mmHg 94%
    07:00 -1°C° 0 mm 3 mps 727 mmHg 94%
    08:00 -1°C° 0 mm 3 mps 727 mmHg 93%
    09:00 0°C° 0 mm 3 mps 727 mmHg 87%
    10:00 +1°C° 0 mm 3 mps 727 mmHg 82%
    11:00 +2°C° 0 mm 3 mps 727 mmHg 76%
    12:00 +1°C° 0 mm 4 mps 727 mmHg 73%
    13:00 +3°C° 0 mm 4 mps 727 mmHg 69%
    14:00 +4°C° 0 mm 4 mps 727 mmHg 66%
    15:00 +3°C° 0 mm 3 mps 727 mmHg 69%
    16:00 +2°C° 0 mm 3 mps 727 mmHg 73%
    17:00 +2°C° 0 mm 2 mps 727 mmHg 76%
    18:00 +2°C° 0 mm 2 mps 727 mmHg 78%
    19:00 +1°C° 0 mm 3 mps 728 mmHg 80%
    20:00 0°C° 0 mm 3 mps 728 mmHg 82%
    21:00 0°C° 0 mm 3 mps 728 mmHg 83%
    22:00 0°C° 0 mm 3 mps 728 mmHg 85%
    23:00 -1°C° 0 mm 2 mps 728 mmHg 86%

    27 February, Thursday

    Time Temperature Precipitation Wind Pressure Humidity
    00:00 -1°C° 0 mm 2 mps 727 mmHg 87%
    01:00 -1°C° 0 mm 3 mps 727 mmHg 89%
    02:00 -1°C° 0 mm 3 mps 727 mmHg 90%
    03:00 -1°C° 0 mm 2 mps 727 mmHg 91%
    04:00 -1°C° 0 mm 2 mps 727 mmHg 92%
    05:00 -2°C° 0 mm 2 mps 727 mmHg 93%
    06:00 -2°C° 0 mm 2 mps 727 mmHg 92%
    07:00 -1°C° 0 mm 2 mps 728 mmHg 91%
    08:00 -1°C° 0 mm 2 mps 728 mmHg 90%
    09:00 -1°C° 0 mm 2 mps 728 mmHg 85%
    10:00 +1°C° 0 mm 2 mps 728 mmHg 80%
    11:00 +1°C° 0 mm 2 mps 728 mmHg 76%
    12:00 +1°C° 0 mm 2 mps 728 mmHg 74%
    13:00 0°C° 0 mm 3 mps 728 mmHg 73%
    14:00 0°C° 0 mm 3 mps 728 mmHg 72%
    15:00 0°C° 0.1 mm 3 mps 729 mmHg 73%
    16:00 -1°C° 0.1 mm 3 mps 729 mmHg 74%
    17:00 -1°C° 0.1 mm 3 mps 729 mmHg 76%
    18:00 -2°C° 0 mm 2 mps 729 mmHg 77%
    19:00 -3°C° 0 mm 2 mps 729 mmHg 78%
    20:00 -3°C° 0 mm 2 mps 730 mmHg 79%
    21:00 -3°C° 0 mm 2 mps 730 mmHg 78%
    22:00 -3°C° 0 mm 2 mps 730 mmHg 78%
    23:00 -4°C° 0 mm 2 mps 730 mmHg 77%

    28 February, Friday

    Time Temperature Precipitation Wind Pressure Humidity
    00:00 -4°C° 0 mm 2 mps 730 mmHg 77%
    01:00 -4°C° 0 mm 2 mps 730 mmHg 77%
    02:00 -4°C° 0 mm 2 mps 730 mmHg 76%
    03:00 -4°C° 0 mm 2 mps 730 mmHg 75%
    04:00 -4°C° 0 mm 2 mps 730 mmHg 74%
    05:00 -5°C° 0 mm 3 mps 730 mmHg 73%
    06:00 -5°C° 0 mm 3 mps 730 mmHg 74%
    07:00 -5°C° 0 mm 3 mps 730 mmHg 76%
    08:00 -5°C° 0 mm 3 mps 730 mmHg 78%
    09:00 -3°C° 0.1 mm 2 mps 730 mmHg 77%
    10:00 -3°C° 0.1 mm 2 mps 730 mmHg 77%
    11:00 -2°C° 0.1 mm 2 mps 730 mmHg 76%
    12:00 0°C° 0.1 mm 1 mps 730 mmHg 72%
    13:00 +1°C° 0.1 mm 1 mps 730 mmHg 68%
    14:00 +2°C° 0.1 mm 1 mps 731 mmHg 64%
    15:00 +1°C° 0.2 mm 1 mps 731 mmHg 69%
    16:00 -2°C° 0.2 mm 2 mps 731 mmHg 74%
    17:00 -2°C° 0.2 mm 2 mps 731 mmHg 80%
    18:00 -3°C° 0.2 mm 2 mps 731 mmHg 80%
    19:00 -3°C° 0.2 mm 2 mps 732 mmHg 81%
    20:00 -5°C° 0.2 mm 3 mps 732 mmHg 82%
    21:00 -5°C° 0 mm 3 mps 732 mmHg 84%
    22:00 -5°C° 0 mm 3 mps 732 mmHg 85%
    23:00 -7°C° 0 mm 4 mps 732 mmHg 87%

    29 February, Saturday

    Time Temperature Precipitation Wind Pressure Humidity
    00:00 -7°C° 0 mm 4 mps 732 mmHg 84%
    01:00 -7°C° 0 mm 4 mps 732 mmHg 82%
    02:00 -7°C° 0 mm 4 mps 732 mmHg 80%
    03:00 -7°C° 0.1 mm 4 mps 732 mmHg 83%
    04:00 -7°C° 0.1 mm 4 mps 732 mmHg 86%
    05:00 -7°C° 0.1 mm 4 mps 732 mmHg 89%
    06:00 -7°C° 0.2 mm 5 mps 732 mmHg 87%
    07:00 -7°C° 0.2 mm 5 mps 732 mmHg 86%
    08:00 -6°C° 0.2 mm 5 mps 732 mmHg 85%
    09:00 -6°C° 0 mm 5 mps 733 mmHg 79%
    10:00 -6°C° 0 mm 5 mps 733 mmHg 74%
    11:00 -6°C° 0 mm 5 mps 733 mmHg 69%
    12:00 -5°C° 0 mm 5 mps 733 mmHg 66%
    13:00 -4°C° 0 mm 5 mps 733 mmHg 63%
    14:00 -4°C° 0 mm 5 mps 734 mmHg 60%
    15:00 -3°C° 0 mm 4 mps 734 mmHg 62%
    16:00 -2°C° 0 mm 3 mps 734 mmHg 64%
    17:00 -4°C° 0 mm 3 mps 734 mmHg 65%
    18:00 -4°C° 0 mm 3 mps 734 mmHg 70%
    19:00 -4°C° 0 mm 2 mps 734 mmHg 75%
    20:00 -5°C° 0 mm 2 mps 735 mmHg 79%
    21:00 -5°C° 0 mm 2 mps 735 mmHg 81%
    22:00 -5°C° 0 mm 2 mps 735 mmHg 83%
    23:00 -5°C° 0 mm 2 mps 735 mmHg 85%
    Show more